[[{"header":{"parameterUnit":"m.s-1","parameterCategory":2,"la1":30.2991,"la2":30.254,"lo1":-89.0895,"lo2":-89.0444,"dy":0.0017,"dx":0.0017,"nx":28,"ny":28,"refTime":"2023-07-30T09:00:00:Z","depth":"0","parameterNumber":2,"parameterNumberName":"U-component_of_CURRENTS"},"data":[0,0,0,0,0,0,0,0,0,0,0,0,0,0,0,0,0,0,0,0,0,0,0,0,0,0,0,0,0,0,0,0,0,0,0,0,0,0,0,0,0,0,0,0,0,0,0,0,0,0,0,0,0,0,0,0,0,0,0.4186,0.4186,0,0.4216,0.4216,0.4217,0.4203,0.4203,0.4202,0.4202,0.4186,0.4186,0.4187,0,0,0,0,0,0,0,0,0,0,0,0,0,0.4183,0.4182,0.4186,0.4186,0.4187,0.4216,0.4216,0.4217,0.4203,0.4203,0.4202,0.4201,0.4186,0.4186,0.4187,0,0,0,0,0,0,0,0,0,0,0,0,0,0.4194,0.4182,0.4186,0.4185,0.4186,0.4216,0.4216,0.4217,0.4204,0.4203,0.4202,0.4201,0.4186,0.4186,0.4187,0.4204,0,0,0.4187,0.4187,0,0,0,0,0,0,0,0,0.4193,0.4193,0.4185,0.4185,0.4186,0.4207,0.421,0.4211,0.4204,0.4195,0.4202,0.4201,0.4191,0.4191,0.4196,0.4203,0.4203,0.4187,0.4187,0.4187,0.4187,0,0,0,0,0,0,0,0.4192,0.4192,0.4196,0.4186,0.4186,0.4207,0.4207,0.421,0.4195,0.4195,0.4195,0.4202,0.4191,0.4196,0.4195,0.4203,0.4187,0.4187,0.4187,0.4187,0.4245,0.4247,0,0,0,0,0,0,0.419,0.4191,0.4195,0.4197,0.419,0.4207,0.4207,0.4199,0.4196,0.4195,0.4203,0.4201,0.4196,0.4195,0.4195,0.4257,0.4187,0.4187,0.4188,0.4244,0.4246,0.4247,0,0,0,0,0,0,0.4189,0.4189,0.4194,0.4197,0.42,0.4208,0.42,0.42,0.4199,0.4202,0.42,0.42,0.4195,0.4195,0.4195,0.4255,0.4188,0.4188,0.4242,0.4244,0.4246,0.4355,0,0,0,0,0,0,0.4189,0.4188,0.4179,0.4197,0.4199,0.4204,0.4201,0.4202,0.4206,0.4204,0.4199,0.4198,0.4195,0.4195,0.4195,0.4254,0.4188,0.424,0.4243,0.4246,0.435,0.4361,0.437,0,0,0,0,0,0.4188,0.4186,0.4178,0.4179,0.4186,0.4204,0.4207,0.421,0.4207,0.4205,0.4205,0.4197,0.4213,0.4195,0.4196,0.4256,0.4239,0.4242,0.4246,0.4345,0.4359,0.437,0,0,0,0,0,0,0.4177,0.4185,0.4177,0.4174,0.4183,0.4202,0.421,0.4209,0.421,0.4207,0.4204,0.4202,0.4243,0.4217,0.4198,0.4279,0.423,0.4234,0.4306,0.4318,0.4329,0.4343,0.4188,0,0,0,0,0,0.4171,0.417,0.4179,0.4176,0.4183,0.4194,0.4201,0.4201,0.4209,0.4208,0.4215,0.4224,0.426,0.4257,0.4279,0.4299,0.4312,0.434,0.435,0.4359,0.437,0.4465,0.4486,0.4258,0.4258,0.4258,0,0,0.417,0.4171,0.4172,0.4174,0.4184,0.4207,0.4195,0.4207,0.4234,0.4207,0.4244,0.4265,0.4276,0.4324,0.4338,0.4303,0.4424,0.4363,0.4371,0.4377,0.447,0.4493,0.4513,0.426,0.426,0.4259,0,0,0.4178,0.4166,0.4173,0.4184,0.4196,0.421,0.4212,0.4233,0.4248,0.4276,0.4293,0.4339,0.4356,0.44,0.4419,0.4489,0.449,0.4493,0.4544,0.4636,0.4657,0.4675,0.4698,0.4718,0.4482,0.4482,0.4482,0,0.4183,0.4176,0.4179,0.4194,0.4213,0.4213,0.4237,0.4261,0.4282,0.432,0.4294,0.4401,0.4407,0.4504,0.4532,0.452,0.4542,0.4501,0.4654,0.4672,0.4689,0.4708,0.4729,0.4488,0.4487,0.4486,0.4486,0,0.4194,0.4196,0.4206,0.4227,0.425,0.4265,0.4302,0.4335,0.4356,0.4393,0.4487,0.4508,0.4575,0.4594,0.4581,0.4712,0.4679,0.4674,0.463,0.4719,0.4732,0.4752,0.4496,0.4494,0.4492,0.4491,0,0,0.4189,0.4212,0.4213,0.4234,0.4265,0.4293,0.4354,0.4422,0.4501,0.4524,0.4631,0.4693,0.4719,0.4742,0.4753,0.4814,0.4945,0.4789,0.4791,0.4823,0.5111,0.4842,0.4836,0.4978,0.4982,0.4986,0.5064,0,0.4195,0.4225,0.4241,0.4291,0.4313,0.4357,0.4427,0.4497,0.4569,0.4675,0.4721,0.4823,0.4772,0.4827,0.4885,0.4955,0.5004,0.4921,0.5008,0.501,0.4772,0.4853,0.4583,0.4609,0.5083,0.5086,0.5088,0,0.4192,0.4213,0.4253,0.4333,0.4354,0.4399,0.4535,0.4606,0.4753,0.4812,0.4912,0.4958,0.5064,0.5009,0.5142,0.5093,0.5109,0.5131,0.5135,0.4861,0.4777,0.46,0.4625,0.4565,0.5117,0.5115,0.5112,0,0.4172,0.4228,0.4261,0.4282,0.4372,0.443,0.4505,0.4652,0.4727,0.4924,0.4984,0.5124,0.5165,0.5258,0.5239,0.5239,0.5347,0.5363,0.5125,0.5105,0.4875,0.4824,0.4859,0.5462,0.5462,0.5462,0.5462,0,0.4157,0.4184,0.4259,0.4276,0.4367,0.4444,0.457,0.4685,0.4827,0.4911,0.5052,0.511,0.523,0.5271,0.5305,0.5224,0.5398,0.5143,0.5121,0.4894,0.4847,0.4779,0.4768,0.5465,0.5464,0.5464,0.5463,0,0.4114,0.4149,0.4202,0.4305,0.4351,0.4427,0.4567,0.4655,0.4803,0.4916,0.4968,0.511,0.5149,0.5189,0.5305,0.5234,0.5094,0.5171,0.484,0.4773,0.4472,0.4475,0.4298,0.4193,0.4979,0.4973,0.4968,0,0.4084,0.41,0.4217,0.4258,0.4302,0.4414,0.4483,0.4635,0.4706,0.4879,0.4907,0.4978,0.4948,0.4969,0.4887,0.4853,0.4828,0.4599,0.4546,0.4411,0.4406,0.4301,0.4222,0.4301,0.4291,0.4283,0.4277,0,0.4034,0.4079,0.4135,0.4218,0.4287,0.4342,0.4443,0.4467,0.4616,0.4659,0.4669,0.4664,0.4619,0.4426,0.4351,0.4334,0.4367,0.442,0.4423,0.3972,0.3728,0.3627,0.4268,0.4203,0.421,0.4216,0.422,0.4223,0.4006,0.4025,0.4097,0.4155,0.4223,0.4205,0.4152,0.4213,0.4213,0.4156,0.4326,0.4183,0.4114,0.3935,0.3885,0.3668,0.3768,0.3603,0.3651,0.3583,0.336,0.3765,0.3571,0.3575,0.3578,0.358,0.3583,0,0.3916,0.3941,0.4016,0.4034,0.4,0.4072,0.4053,0.391,0.3754,0.3788,0.3695,0.3551,0.3345,0.3321,0.3133,0.2989,0.2915,0.2939,0.2829,0.2824,0.3319,0.3166,0.2699,0.2699,0.2699,0.27,0.27,0.27,0.3873,0.3859,0.3869,0.377,0.3758,0.3566,0.3462,0.3286,0.3224,0.2986,0.2867,0.2887,0.3001,0.2876,0.2696,0.2622,0.2548,0.2287,0.2439,0.2893,0.2963,0.303,0.2888,0.237,0.237,0.1795,0.1791,0.1788]},{"header":{"parameterUnit":"m.s-1","parameterCategory":2,"la1":30.2991,"la2":30.254,"lo1":-89.0895,"lo2":-89.0444,"dy":0.0017,"dx":0.0017,"nx":28,"ny":28,"refTime":"2023-07-30T09:00:00:Z","depth":"0","parameterNumber":3,"parameterNumberName":"V-component_of_CURRENTS"},"data":[0,0,0,0,0,0,0,0,0,0,0,0,0,0,0,0,0,0,0,0,0,0,0,0,0,0,0,0,0,0,0,0,0,0,0,0,0,0,0,0,0,0,0,0,0,0,0,0,0,0,0,0,0,0,0,0,0,0,0.0479,0.0479,0,0.0456,0.0456,0.0455,0.0415,0.0414,0.0414,0.0413,0.0362,0.0361,0.036,0,0,0,0,0,0,0,0,0,0,0,0,0,0.0462,0.0462,0.0479,0.0479,0.0479,0.0456,0.0456,0.0455,0.0415,0.0414,0.0414,0.0413,0.0362,0.0361,0.036,0,0,0,0,0,0,0,0,0,0,0,0,0,0.0455,0.0462,0.0479,0.0458,0.0456,0.0456,0.0456,0.0455,0.0415,0.0414,0.0414,0.0413,0.0363,0.0361,0.036,0.0367,0,0,0.0356,0.0355,0,0,0,0,0,0,0,0,0.0455,0.0455,0.0461,0.046,0.0458,0.044,0.0431,0.0425,0.0415,0.0428,0.0413,0.0412,0.0388,0.0384,0.0378,0.0365,0.0363,0.0356,0.0355,0.0354,0.0354,0,0,0,0,0,0,0,0.0456,0.0456,0.0467,0.0462,0.0459,0.0441,0.0439,0.0429,0.041,0.0427,0.0425,0.0426,0.0386,0.038,0.0377,0.0362,0.0356,0.0355,0.0354,0.0353,0.0376,0.0377,0,0,0,0,0,0,0.0466,0.0456,0.0468,0.0467,0.0457,0.0442,0.044,0.0444,0.041,0.0406,0.0427,0.0425,0.0382,0.0378,0.0375,0.0418,0.0354,0.0353,0.0352,0.0374,0.0376,0.0378,0,0,0,0,0,0,0.0466,0.0468,0.0469,0.0463,0.0462,0.0444,0.0449,0.0444,0.044,0.0412,0.0405,0.0428,0.0382,0.0377,0.0378,0.0414,0.0353,0.0351,0.0373,0.0375,0.0377,0.0481,0,0,0,0,0,0,0.0466,0.0468,0.0475,0.0464,0.0463,0.0477,0.045,0.0444,0.0444,0.044,0.0411,0.0405,0.0381,0.038,0.0377,0.0411,0.035,0.0371,0.0374,0.0376,0.0476,0.0487,0.0496,0,0,0,0,0,0.0465,0.0482,0.0475,0.0477,0.0473,0.0478,0.0476,0.0458,0.0445,0.0449,0.0434,0.0406,0.0394,0.038,0.0376,0.0411,0.037,0.0373,0.0376,0.0472,0.0485,0.0496,0,0,0,0,0,0,0.0473,0.0479,0.0472,0.0487,0.0486,0.0472,0.048,0.0466,0.0457,0.0453,0.0421,0.0415,0.043,0.0405,0.0391,0.0425,0.0379,0.0381,0.0453,0.0465,0.0474,0.0505,0.0349,0,0,0,0,0,0.0481,0.0497,0.0493,0.0506,0.0511,0.0496,0.0496,0.0484,0.0475,0.0469,0.0455,0.0441,0.044,0.0439,0.0428,0.0447,0.0423,0.0467,0.0477,0.0485,0.0507,0.0519,0.0532,0.0388,0.0388,0.0388,0,0,0.0487,0.0493,0.0501,0.0509,0.0508,0.0532,0.0494,0.0501,0.0521,0.0467,0.0492,0.0473,0.0451,0.0474,0.0479,0.0458,0.0506,0.0489,0.0497,0.0515,0.0524,0.0538,0.055,0.039,0.039,0.0389,0,0,0.0517,0.0516,0.0544,0.0552,0.0559,0.0555,0.0562,0.0557,0.0556,0.0573,0.0546,0.0556,0.0544,0.0549,0.0547,0.0606,0.0556,0.0595,0.0675,0.0686,0.0699,0.0709,0.0667,0.0673,0.0604,0.0604,0.0604,0,0.0526,0.0561,0.0551,0.0584,0.0602,0.0574,0.0611,0.061,0.0606,0.0629,0.0593,0.0618,0.0588,0.0643,0.0656,0.0632,0.0608,0.0633,0.0701,0.0711,0.072,0.0674,0.068,0.0609,0.0609,0.0608,0.0608,0,0.058,0.0611,0.0631,0.0669,0.0682,0.0709,0.0712,0.0729,0.0723,0.0731,0.0774,0.0742,0.0766,0.0752,0.0718,0.078,0.0728,0.0709,0.0674,0.0741,0.0687,0.0691,0.0617,0.0615,0.0613,0.0612,0,0,0.0603,0.066,0.0669,0.0711,0.0732,0.0758,0.0798,0.0843,0.0907,0.0884,0.0967,0.0944,0.0935,0.0932,0.0898,0.0899,0.0917,0.0836,0.0834,0.0799,0.0905,0.0834,0.0829,0.0912,0.0914,0.0915,0.0829,0,0.0654,0.0737,0.0748,0.0833,0.0881,0.0883,0.0938,0.0971,0.0999,0.1071,0.1046,0.1103,0.1002,0.1032,0.1015,0.0962,0.0938,0.094,0.084,0.0837,0.0772,0.0837,0.081,0.0731,0.0833,0.0833,0.0834,0,0.0714,0.0762,0.0849,0.0944,0.0968,0.1012,0.1116,0.1167,0.1243,0.1269,0.1307,0.1294,0.1306,0.1212,0.1135,0.114,0.103,0.0962,0.0957,0.0865,0.0776,0.0686,0.0733,0.0656,0.0839,0.0838,0.0838,0,0.0756,0.0846,0.0922,0.0949,0.1038,0.1089,0.1147,0.1231,0.1324,0.1416,0.1494,0.148,0.1498,0.1387,0.1221,0.1191,0.112,0.1061,0.088,0.0871,0.0818,0.0802,0.0791,0.1,0.1,0.1,0.1001,0,0.082,0.0887,0.0952,0.0998,0.112,0.1156,0.1307,0.1368,0.1497,0.164,0.1609,0.1701,0.1546,0.1481,0.1299,0.1106,0.1173,0.0911,0.0866,0.0847,0.0836,0.074,0.0661,0.0997,0.0998,0.0999,0.0999,0,0.0867,0.0903,0.1009,0.1106,0.1146,0.1241,0.1415,0.1544,0.1633,0.1823,0.1865,0.1884,0.1781,0.1588,0.1407,0.1214,0.0957,0.0939,0.0898,0.085,0.0598,0.0524,0.0407,0.0371,0.0735,0.0733,0.0731,0,0.0903,0.0955,0.1087,0.1169,0.122,0.1359,0.1479,0.1605,0.1758,0.1936,0.2046,0.2005,0.198,0.1668,0.1332,0.1004,0.0887,0.0768,0.0708,0.0604,0.0489,0.0439,0.0415,0.0655,0.0653,0.0652,0.065,0,0.0975,0.1018,0.1111,0.1268,0.1398,0.1556,0.1731,0.1862,0.2032,0.2164,0.2304,0.2292,0.1984,0.1654,0.1206,0.0972,0.0701,0.0719,0.0652,0.0467,0.0375,0.0312,0.0653,0.0635,0.0636,0.0637,0.0638,0.0639,0.1038,0.1118,0.1238,0.1393,0.1545,0.1731,0.1862,0.2033,0.2235,0.2398,0.2418,0.2373,0.1962,0.1337,0.1053,0.0553,0.0542,0.0393,0.0318,0.0283,0.0246,0.0527,0.0438,0.0438,0.0439,0.0439,0.0439,0,0.1106,0.1204,0.1357,0.1544,0.171,0.1778,0.2021,0.2129,0.2311,0.2419,0.2464,0.2228,0.1703,0.1227,0.0546,0.0234,0.0148,0.0082,0.0038,0.0038,0.033,0.0329,0.0166,0.0166,0.0166,0.0167,0.0167,0.0167,0.1151,0.1287,0.1362,0.163,0.1773,0.197,0.2095,0.2222,0.2319,0.2373,0.2331,0.2284,0.1969,0.0821,0.0117,-0.0043,-0.0168,-0.0278,-0.0308,-0.0083,-0.0057,-0.0033,-0.0045,-0.0283,-0.0284,-0.0538,-0.0542,-0.0544]}],[{"header":{"parameterUnit":"m.s-1","parameterCategory":2,"la1":30.2991,"la2":30.254,"lo1":-89.0895,"lo2":-89.0444,"dy":0.0017,"dx":0.0017,"nx":28,"ny":28,"refTime":"2023-07-30T09:00:00:Z","depth":"2","parameterNumber":2,"parameterNumberName":"U-component_of_CURRENTS"},"data":[0,0,0,0,0,0,0,0,0,0,0,0,0,0,0,0,0,0,0,0,0,0,0,0,0,0,0,0,0,0,0,0,0,0,0,0,0,0,0,0,0,0,0,0,0,0,0,0,0,0,0,0,0,0,0,0,0,0,0.3184,0.3185,0,0.3258,0.3259,0.3259,0.3308,0.3309,0.3309,0.331,0.3333,0.3333,0.3333,0,0,0,0,0,0,0,0,0,0,0,0,0,0.3147,0.3147,0.3184,0.3185,0.3187,0.3258,0.3259,0.326,0.3308,0.3309,0.3309,0.331,0.3333,0.3333,0.3333,0,0,0,0,0,0,0,0,0,0,0,0,0,0.3184,0.3147,0.3184,0.3221,0.3225,0.3258,0.3259,0.326,0.3308,0.3309,0.331,0.331,0.3332,0.3333,0.3333,0.3317,0,0,0.3333,0.3333,0,0,0,0,0,0,0,0,0.3182,0.3185,0.3215,0.3219,0.3224,0.3277,0.3255,0.3277,0.3308,0.3274,0.331,0.3311,0.331,0.3312,0.3322,0.3318,0.3319,0.3333,0.3333,0.3333,0.3333,0,0,0,0,0,0,0,0.3179,0.3182,0.3211,0.3216,0.3221,0.3256,0.3261,0.3259,0.3284,0.3277,0.3281,0.3293,0.3312,0.3321,0.3322,0.332,0.3333,0.3333,0.3333,0.3334,0.3405,0.3407,0,0,0,0,0,0,0.317,0.3179,0.3209,0.3214,0.3207,0.3255,0.3261,0.3257,0.3285,0.3291,0.3292,0.3295,0.3321,0.3322,0.3323,0.34,0.3333,0.3334,0.3334,0.3403,0.3405,0.3407,0,0,0,0,0,0,0.3169,0.3172,0.3206,0.3201,0.3208,0.3255,0.325,0.3258,0.3292,0.3298,0.3303,0.3321,0.3321,0.3323,0.3336,0.3397,0.3334,0.3334,0.3401,0.3404,0.3406,0.3493,0,0,0,0,0,0,0.3167,0.317,0.3174,0.32,0.3208,0.324,0.325,0.3259,0.3298,0.3303,0.3323,0.3325,0.3322,0.3335,0.3336,0.3397,0.3334,0.3399,0.3402,0.3406,0.3488,0.3498,0.3507,0,0,0,0,0,0.3165,0.3164,0.3174,0.3178,0.3208,0.3241,0.3249,0.3284,0.3299,0.3317,0.3325,0.3326,0.3359,0.3336,0.3336,0.3399,0.3397,0.3401,0.3405,0.3483,0.3496,0.3507,0,0,0,0,0,0,0.3156,0.317,0.3181,0.3186,0.3219,0.3251,0.3282,0.3295,0.3318,0.3335,0.3328,0.333,0.3385,0.3363,0.3338,0.343,0.3387,0.3391,0.3446,0.3458,0.3468,0.3497,0.3334,0,0,0,0,0,0.3153,0.3158,0.3182,0.3194,0.3216,0.3252,0.3274,0.33,0.3321,0.3335,0.334,0.3359,0.3398,0.3402,0.3427,0.3446,0.3453,0.3493,0.3503,0.3511,0.3536,0.361,0.3629,0.3421,0.3421,0.3421,0,0,0.3159,0.3166,0.3173,0.3194,0.3231,0.3265,0.3269,0.3319,0.335,0.3331,0.3372,0.3399,0.3415,0.3464,0.3485,0.345,0.3565,0.3517,0.3524,0.3545,0.3616,0.3637,0.3655,0.3424,0.3423,0.3423,0,0,0.3171,0.3181,0.3194,0.3222,0.3274,0.3296,0.3313,0.3353,0.338,0.3415,0.3433,0.3487,0.3505,0.3543,0.3563,0.3633,0.3629,0.3646,0.3702,0.3773,0.3791,0.3808,0.3802,0.3817,0.3632,0.3633,0.3633,0,0.3182,0.3193,0.3208,0.3235,0.3269,0.3311,0.3348,0.3381,0.3415,0.3442,0.3443,0.3547,0.3557,0.3643,0.3678,0.3662,0.3672,0.3656,0.3788,0.3805,0.382,0.381,0.3826,0.3637,0.3637,0.3636,0.3636,0,0.321,0.3227,0.3249,0.3289,0.3321,0.337,0.3413,0.345,0.3489,0.3521,0.3622,0.3655,0.3717,0.374,0.3732,0.3852,0.3813,0.3807,0.3761,0.3846,0.3829,0.3844,0.3644,0.3642,0.3641,0.364,0,0,0.3199,0.3257,0.3261,0.3278,0.336,0.3372,0.345,0.3513,0.3572,0.3632,0.3719,0.3805,0.3845,0.3872,0.389,0.3948,0.405,0.3926,0.3927,0.3922,0.4163,0.3957,0.3952,0.4075,0.4079,0.4083,0.4092,0,0.3224,0.3268,0.3292,0.3336,0.3372,0.3428,0.3496,0.356,0.363,0.3718,0.3803,0.3908,0.3888,0.3957,0.4012,0.4062,0.4101,0.4045,0.4078,0.4078,0.389,0.3968,0.3669,0.3639,0.4106,0.4109,0.411,0,0.3227,0.3262,0.3319,0.3363,0.3385,0.3423,0.3529,0.3587,0.373,0.3816,0.3936,0.4001,0.4122,0.4107,0.4213,0.418,0.4186,0.4203,0.4204,0.4001,0.3903,0.3638,0.3648,0.4135,0.4133,0.4131,0.4129,0,0.3192,0.3248,0.3289,0.3314,0.3403,0.3438,0.3489,0.3621,0.371,0.3896,0.3996,0.4131,0.4221,0.4285,0.4294,0.4283,0.4386,0.4364,0.4173,0.4155,0.3901,0.3853,0.4452,0.4452,0.4452,0.4452,0.4452,0,0.3192,0.321,0.3275,0.3298,0.3361,0.342,0.3533,0.3612,0.38,0.3893,0.4041,0.4142,0.4282,0.4332,0.434,0.4277,0.4414,0.4201,0.4165,0.3912,0.3868,0.4305,0.4288,0.4452,0.4452,0.4452,0.4452,0,0.3157,0.3207,0.3236,0.3317,0.3347,0.3388,0.3553,0.3628,0.3814,0.3949,0.4026,0.4195,0.4238,0.4296,0.4385,0.4297,0.4293,0.4233,0.3883,0.3805,0.3998,0.3986,0.4033,0.4027,0.4021,0.4016,0.4012,0,0.3137,0.3168,0.3229,0.3252,0.3293,0.3392,0.3465,0.3647,0.3724,0.3933,0.3961,0.4087,0.4084,0.4109,0.4048,0.3997,0.4144,0.3671,0.3599,0.4005,0.3967,0.3963,0.3958,0.3284,0.3274,0.3266,0.326,0,0.312,0.3151,0.3168,0.3211,0.3256,0.3336,0.3424,0.3497,0.3665,0.3746,0.3781,0.3802,0.3818,0.3622,0.3577,0.352,0.3657,0.3501,0.4071,0.3418,0.3295,0.3258,0.3279,0.319,0.3197,0.3202,0.3206,0.3209,0.3072,0.3086,0.3099,0.3116,0.318,0.3203,0.3186,0.3267,0.3315,0.3337,0.3476,0.3379,0.3397,0.3147,0.3025,0.2945,0.3192,0.3062,0.3089,0.3124,0.3018,0.289,0.2686,0.2689,0.2693,0.2696,0.2699,0,0.2996,0.3003,0.3005,0.2981,0.2968,0.3062,0.3087,0.3016,0.2934,0.3011,0.2997,0.2711,0.256,0.2591,0.2338,0.229,0.2316,0.2209,0.2237,0.2307,0.2369,0.2228,0.1685,0.1682,0.1679,0.1676,0,0,0.2942,0.2874,0.2855,0.2743,0.2762,0.2666,0.2632,0.2535,0.2527,0.2407,0.234,0.251,0.2528,0.2102,0.2018,0.1808,0.206,0.1739,0.2555,0.2663,0.2722,0.286,0.272,0,0,0,0,0]},{"header":{"parameterUnit":"m.s-1","parameterCategory":2,"la1":30.2991,"la2":30.254,"lo1":-89.0895,"lo2":-89.0444,"dy":0.0017,"dx":0.0017,"nx":28,"ny":28,"refTime":"2023-07-30T09:00:00:Z","depth":"2","parameterNumber":3,"parameterNumberName":"V-component_of_CURRENTS"},"data":[0,0,0,0,0,0,0,0,0,0,0,0,0,0,0,0,0,0,0,0,0,0,0,0,0,0,0,0,0,0,0,0,0,0,0,0,0,0,0,0,0,0,0,0,0,0,0,0,0,0,0,0,0,0,0,0,0,0,0.026,0.026,0,0.0229,0.0229,0.0228,0.0199,0.0199,0.0199,0.0199,0.0166,0.0165,0.0164,0,0,0,0,0,0,0,0,0,0,0,0,0,0.0244,0.0245,0.026,0.026,0.026,0.0229,0.0229,0.0228,0.0199,0.0199,0.0199,0.0199,0.0166,0.0165,0.0164,0,0,0,0,0,0,0,0,0,0,0,0,0,0.0232,0.0245,0.026,0.0245,0.0244,0.023,0.0229,0.0228,0.0199,0.0199,0.0199,0.0199,0.0167,0.0166,0.0164,0.0156,0,0,0.016,0.016,0,0,0,0,0,0,0,0,0.0233,0.0232,0.0248,0.0246,0.0245,0.0222,0.0211,0.0205,0.0199,0.0212,0.0199,0.0199,0.0187,0.0184,0.0173,0.0154,0.0153,0.016,0.0159,0.0159,0.0158,0,0,0,0,0,0,0,0.0234,0.0233,0.0244,0.0248,0.0246,0.0223,0.0221,0.0209,0.0197,0.0211,0.021,0.0212,0.0186,0.0174,0.0172,0.0152,0.016,0.0159,0.0158,0.0158,0.0155,0.0155,0,0,0,0,0,0,0.0249,0.0235,0.0245,0.0244,0.0243,0.0224,0.0221,0.0226,0.0197,0.0194,0.0212,0.0211,0.0176,0.0173,0.0171,0.02,0.0159,0.0157,0.0157,0.0154,0.0155,0.0156,0,0,0,0,0,0,0.0248,0.025,0.0247,0.0241,0.024,0.0225,0.0229,0.0225,0.0221,0.0199,0.0195,0.0214,0.0176,0.0172,0.0173,0.0197,0.0157,0.0156,0.0153,0.0154,0.0155,0.0234,0,0,0,0,0,0,0.0248,0.025,0.0257,0.0242,0.0241,0.025,0.0229,0.0225,0.0224,0.0223,0.0199,0.0195,0.0176,0.0175,0.0172,0.0195,0.0155,0.0152,0.0154,0.0155,0.023,0.0237,0.0243,0,0,0,0,0,0.0247,0.0261,0.0258,0.0259,0.0252,0.0251,0.0248,0.0233,0.0225,0.0228,0.0215,0.0196,0.0181,0.0175,0.0171,0.0194,0.0152,0.0153,0.0155,0.0227,0.0236,0.0243,0,0,0,0,0,0,0.0256,0.026,0.0255,0.0269,0.0266,0.0248,0.0254,0.0241,0.023,0.0231,0.0205,0.0201,0.021,0.0189,0.0182,0.0196,0.0164,0.0164,0.022,0.0228,0.0235,0.0267,0.0154,0,0,0,0,0,0.0263,0.0275,0.0271,0.0282,0.0286,0.0271,0.0269,0.0259,0.025,0.0245,0.0231,0.0217,0.0212,0.021,0.0198,0.0205,0.018,0.0217,0.0223,0.0229,0.0252,0.0237,0.0245,0.0161,0.0161,0.0161,0,0,0.0269,0.0274,0.0279,0.0285,0.0283,0.03,0.0269,0.0275,0.0288,0.0244,0.026,0.024,0.0218,0.0229,0.0231,0.0216,0.0234,0.0231,0.0237,0.0257,0.024,0.0248,0.0256,0.0162,0.0162,0.0162,0,0,0.0295,0.0295,0.0317,0.0323,0.033,0.0322,0.0329,0.0321,0.0318,0.0327,0.0302,0.0301,0.0287,0.0282,0.0275,0.0311,0.0269,0.0302,0.0365,0.035,0.0357,0.0363,0.0318,0.0319,0.0306,0.0306,0.0306,0,0.0299,0.0333,0.0322,0.035,0.0367,0.034,0.0372,0.0364,0.0356,0.0367,0.0345,0.0347,0.0318,0.0345,0.0353,0.0329,0.0302,0.0338,0.036,0.0366,0.0371,0.0323,0.0323,0.031,0.031,0.0309,0.0309,0,0.035,0.0376,0.0392,0.0423,0.0433,0.0456,0.0453,0.0462,0.0455,0.0449,0.0473,0.044,0.0447,0.0431,0.0402,0.0429,0.0391,0.0369,0.0344,0.0384,0.033,0.0329,0.0316,0.0315,0.0313,0.0312,0,0,0.0366,0.0417,0.0425,0.0459,0.0478,0.0495,0.0524,0.0548,0.0587,0.0566,0.0617,0.0589,0.0575,0.0567,0.0532,0.0516,0.0505,0.0464,0.0461,0.0426,0.0453,0.0404,0.0398,0.0489,0.049,0.0491,0.0392,0,0.0412,0.0484,0.0494,0.0562,0.0603,0.06,0.0641,0.0655,0.0661,0.07,0.0669,0.0702,0.0625,0.0646,0.0613,0.0544,0.0512,0.0533,0.0414,0.041,0.0369,0.0399,0.0417,0.033,0.0391,0.0391,0.0391,0,0.0468,0.0512,0.0587,0.0658,0.0677,0.0713,0.0783,0.0814,0.0846,0.0862,0.0875,0.0849,0.0834,0.0769,0.0662,0.0679,0.0578,0.0508,0.0502,0.0437,0.0363,0.0303,0.0326,0.0389,0.0389,0.0389,0.0389,0,0.0509,0.0581,0.0647,0.0669,0.0738,0.0781,0.0822,0.0869,0.0937,0.0977,0.1031,0.0987,0.0996,0.0873,0.071,0.0693,0.058,0.0534,0.039,0.0383,0.0367,0.0358,0.0464,0.0464,0.0464,0.0464,0.0465,0,0.0566,0.0622,0.0676,0.0718,0.0818,0.0844,0.0962,0.0994,0.1088,0.1187,0.1125,0.1182,0.1027,0.0935,0.0761,0.0573,0.0611,0.0414,0.0369,0.039,0.0385,0.0417,0.0413,0.0461,0.0461,0.0462,0.0463,0,0.0613,0.0643,0.0732,0.0812,0.0844,0.0923,0.1072,0.1169,0.1226,0.1356,0.1386,0.135,0.1219,0.1025,0.0827,0.0655,0.0472,0.0392,0.0412,0.0371,0.0264,0.0265,0.0225,0.0223,0.0221,0.0219,0.0218,0,0.0643,0.0691,0.0798,0.0868,0.0914,0.1035,0.1139,0.1241,0.1354,0.1451,0.1522,0.1447,0.1383,0.1055,0.0775,0.0473,0.0439,0.028,0.0254,0.0287,0.0246,0.025,0.0254,0.0245,0.0244,0.0243,0.0242,0,0.0708,0.0746,0.0821,0.0953,0.1068,0.1209,0.1354,0.1464,0.1586,0.1655,0.171,0.1661,0.1382,0.1084,0.0692,0.0485,0.0329,0.0252,0.0305,0.0305,0.0299,0.0261,0.0265,0.0235,0.0236,0.0236,0.0237,0.0237,0.0755,0.0826,0.0922,0.1049,0.1192,0.1361,0.1468,0.1608,0.1749,0.1849,0.1816,0.1722,0.1443,0.0919,0.0597,0.0267,0.028,0.014,0.0146,0.0152,0.0175,0.0166,0.0079,0.0079,0.0079,0.0079,0.0079,0,0.0813,0.0894,0.1014,0.1171,0.133,0.1398,0.1598,0.1685,0.1806,0.1887,0.1894,0.1579,0.1258,0.0926,0.0442,0.0148,0.0141,0.0036,0.01,0.0108,0.0116,0.014,0.0033,0.0032,0.0032,0.0031,0,0,0.0848,0.0956,0.1014,0.1246,0.1377,0.1563,0.167,0.1765,0.1839,0.1862,0.1813,0.1758,0.1352,0.0991,0.0605,0.0321,0.028,0.0256,0.0322,0.0452,0.0463,0.0201,0.0251,0,0,0,0,0]}],[{"header":{"parameterUnit":"m.s-1","parameterCategory":2,"la1":30.2991,"la2":30.254,"lo1":-89.0895,"lo2":-89.0444,"dy":0.0017,"dx":0.0017,"nx":28,"ny":28,"refTime":"2023-07-30T09:00:00:Z","depth":"4","parameterNumber":2,"parameterNumberName":"U-component_of_CURRENTS"},"data":[0,0,0,0,0,0,0,0,0,0,0,0,0,0,0,0,0,0,0,0,0,0,0,0,0,0,0,0,0,0,0,0,0,0,0,0,0,0,0,0,0,0,0,0,0,0,0,0,0,0,0,0,0,0,0,0,0,0,0.1742,0.1743,0,0.178,0.1779,0.1779,0.1797,0.1798,0.1799,0.1799,0.1904,0.1906,0.1908,0,0,0,0,0,0,0,0,0,0,0,0,0,0.1691,0.1691,0.1742,0.1743,0.1745,0.178,0.1779,0.1779,0.1797,0.1798,0.1799,0.18,0.1903,0.1905,0.1908,0,0,0,0,0,0,0,0,0,0,0,0,0,0.1711,0.1691,0.1742,0.1764,0.1767,0.178,0.1779,0.1779,0.1797,0.1798,0.1799,0.18,0.1902,0.1905,0.1908,0.1902,0,0,0.1917,0.1919,0,0,0,0,0,0,0,0,0.171,0.1711,0.176,0.1763,0.1767,0.1793,0.18,0.1827,0.1796,0.1776,0.1799,0.1801,0.1878,0.1883,0.1873,0.1907,0.1912,0.1918,0.192,0.1921,0.1922,0,0,0,0,0,0,0,0.1708,0.171,0.1748,0.1761,0.1765,0.1776,0.1778,0.1804,0.1814,0.1778,0.1781,0.18,0.1879,0.187,0.1876,0.1913,0.1918,0.192,0.1922,0.1923,0.2052,0.2053,0,0,0,0,0,0,0.172,0.1709,0.1747,0.175,0.1751,0.1776,0.1779,0.1776,0.1812,0.1821,0.1799,0.1801,0.1864,0.1873,0.188,0.1984,0.1921,0.1924,0.1925,0.205,0.2052,0.2054,0,0,0,0,0,0,0.1719,0.1722,0.1745,0.1739,0.1744,0.1777,0.1772,0.1776,0.1806,0.1829,0.1837,0.1831,0.1866,0.1876,0.1938,0.1984,0.1925,0.1928,0.2048,0.2051,0.2053,0.2122,0,0,0,0,0,0,0.1716,0.1721,0.174,0.1739,0.1745,0.177,0.1772,0.1776,0.1817,0.1821,0.1859,0.1867,0.1867,0.1934,0.1941,0.1987,0.193,0.2046,0.205,0.2052,0.2118,0.2127,0.2134,0,0,0,0,0,0.1714,0.1727,0.174,0.1747,0.1763,0.1772,0.1774,0.1796,0.1818,0.1828,0.1866,0.1868,0.1958,0.1938,0.1946,0.1994,0.2045,0.2049,0.2052,0.2114,0.2125,0.2134,0,0,0,0,0,0,0.1716,0.1731,0.1745,0.1763,0.178,0.1779,0.1805,0.1818,0.1851,0.1878,0.1889,0.19,0.197,0.1971,0.1948,0.2038,0.2002,0.2007,0.2046,0.2056,0.2064,0.2074,0.1933,0,0,0,0,0,0.1727,0.1742,0.1754,0.1776,0.1788,0.1804,0.1822,0.1839,0.1864,0.188,0.1908,0.1946,0.1982,0.2013,0.2037,0.209,0.2096,0.2125,0.2134,0.214,0.2153,0.2207,0.2221,0.2066,0.2066,0.2066,0,0,0.1733,0.1751,0.1759,0.178,0.1797,0.1817,0.1816,0.1855,0.1886,0.1889,0.1953,0.1979,0.2002,0.2059,0.2091,0.2074,0.2185,0.2145,0.2151,0.216,0.2212,0.2227,0.2241,0.2068,0.2068,0.2067,0,0,0.1748,0.1771,0.1787,0.1808,0.1854,0.1858,0.188,0.1904,0.1932,0.1993,0.2005,0.2059,0.2115,0.2133,0.2151,0.222,0.2224,0.2236,0.2292,0.2344,0.2357,0.2369,0.2382,0.2395,0.2243,0.2243,0.2243,0,0.1769,0.1781,0.1796,0.1824,0.185,0.1882,0.1906,0.1935,0.1982,0.2013,0.2032,0.2127,0.2148,0.2212,0.224,0.2241,0.2262,0.2253,0.2356,0.2368,0.2379,0.2389,0.2402,0.2247,0.2246,0.2246,0.2245,0,0.178,0.1813,0.183,0.1869,0.1894,0.1927,0.1966,0.201,0.2061,0.2091,0.2182,0.2217,0.2277,0.2291,0.2296,0.2383,0.2369,0.2358,0.2331,0.2399,0.2404,0.2417,0.2252,0.2251,0.225,0.2249,0,0,0.1766,0.1824,0.1839,0.1861,0.1926,0.1936,0.2008,0.2058,0.2117,0.2186,0.2265,0.2331,0.2371,0.2394,0.241,0.2456,0.2547,0.2456,0.2457,0.2468,0.2653,0.2462,0.2456,0.2569,0.2572,0.2574,0.262,0,0.1777,0.1822,0.1856,0.1906,0.1922,0.1981,0.2035,0.2099,0.2172,0.2259,0.2325,0.2413,0.2405,0.2465,0.2512,0.2553,0.2587,0.2534,0.2585,0.2586,0.2409,0.2466,0.2583,0.2629,0.2632,0.2634,0.2635,0,0.1771,0.1803,0.185,0.1911,0.1928,0.1977,0.207,0.2127,0.2253,0.2322,0.2428,0.2492,0.2596,0.2581,0.2681,0.2659,0.2668,0.2677,0.2679,0.2487,0.2418,0.2551,0.2657,0.2655,0.2654,0.2652,0.2651,0,0.1718,0.1794,0.1829,0.1855,0.1934,0.1988,0.2045,0.2158,0.2227,0.239,0.2474,0.259,0.2687,0.2731,0.2769,0.2753,0.2854,0.2825,0.2645,0.263,0.2759,0.2746,0.2879,0.2879,0.2879,0.2879,0.2879,0,0.1689,0.1723,0.1821,0.1839,0.1896,0.1973,0.2064,0.2145,0.2298,0.2381,0.2519,0.2602,0.2741,0.2812,0.2812,0.2764,0.2892,0.2662,0.2637,0.2783,0.2772,0.2766,0.2752,0.2881,0.288,0.288,0.288,0,0.1613,0.1687,0.1727,0.183,0.1871,0.1918,0.2066,0.2132,0.2291,0.2418,0.2487,0.2666,0.2751,0.2824,0.2903,0.2804,0.2782,0.2722,0.2868,0.285,0.2509,0.2499,0.2529,0.2523,0.2518,0.2514,0.251,0,0.1575,0.1591,0.1698,0.1728,0.1787,0.1879,0.1943,0.2116,0.219,0.2414,0.2458,0.2628,0.2712,0.2665,0.275,0.2726,0.2681,0.2641,0.2574,0.2504,0.2479,0.2476,0.2473,0.2502,0.25,0.2499,0.2497,0,0.1489,0.1546,0.1577,0.1637,0.1717,0.1776,0.1888,0.1941,0.2135,0.23,0.2378,0.2427,0.2509,0.2553,0.2558,0.2529,0.2658,0.2585,0.2595,0.2531,0.2471,0.245,0.2453,0.2479,0.2482,0.2484,0.2485,0,0.1436,0.1436,0.1491,0.1526,0.1607,0.1646,0.1724,0.1811,0.1917,0.2169,0.2184,0.2338,0.2494,0.2449,0.2447,0.2418,0.2369,0.2265,0.229,0.2311,0.2214,0.2104,0.1986,0,0,0,0,0,0.1377,0.136,0.1369,0.1412,0.1474,0.1531,0.1664,0.1756,0.1959,0.1958,0.2069,0.2127,0.2159,0.2232,0.2155,0.2332,0.237,0.2227,0.2262,0.2378,0.2399,0.2303,0,0,0,0,0,0,0.1342,0.1355,0.1329,0.1297,0.1304,0.1384,0.1472,0.1613,0.1615,0.1816,0.1847,0.1978,0.2042,0.2184,0.2112,0.2129,0.2098,0.2319,0.2312,0.2366,0.2386,0.2402,0.2311,0,0,0,0,0]},{"header":{"parameterUnit":"m.s-1","parameterCategory":2,"la1":30.2991,"la2":30.254,"lo1":-89.0895,"lo2":-89.0444,"dy":0.0017,"dx":0.0017,"nx":28,"ny":28,"refTime":"2023-07-30T09:00:00:Z","depth":"4","parameterNumber":3,"parameterNumberName":"V-component_of_CURRENTS"},"data":[0,0,0,0,0,0,0,0,0,0,0,0,0,0,0,0,0,0,0,0,0,0,0,0,0,0,0,0,0,0,0,0,0,0,0,0,0,0,0,0,0,0,0,0,0,0,0,0,0,0,0,0,0,0,0,0,0,0,0.0147,0.0147,0,0.0127,0.0126,0.0126,0.0114,0.0115,0.0115,0.0115,0.0096,0.0096,0.0095,0,0,0,0,0,0,0,0,0,0,0,0,0,0.0139,0.0139,0.0147,0.0147,0.0147,0.0127,0.0126,0.0126,0.0114,0.0115,0.0115,0.0115,0.0097,0.0096,0.0095,0,0,0,0,0,0,0,0,0,0,0,0,0,0.0131,0.0139,0.0147,0.0141,0.014,0.0127,0.0126,0.0125,0.0114,0.0115,0.0115,0.0115,0.0097,0.0096,0.0095,0.0083,0,0,0.0092,0.0091,0,0,0,0,0,0,0,0,0.0131,0.0131,0.0142,0.0141,0.014,0.0125,0.0116,0.0112,0.0114,0.0122,0.0115,0.0115,0.0107,0.0106,0.0098,0.0083,0.0082,0.0092,0.0091,0.0091,0.009,0,0,0,0,0,0,0,0.0132,0.0131,0.0137,0.0142,0.0141,0.0126,0.0125,0.0115,0.0112,0.0121,0.0121,0.0122,0.0107,0.0099,0.0097,0.0081,0.0092,0.0091,0.009,0.009,0.0064,0.0064,0,0,0,0,0,0,0.0141,0.0132,0.0137,0.0136,0.0139,0.0126,0.0125,0.0128,0.0112,0.011,0.0122,0.0122,0.01,0.0099,0.0097,0.0107,0.0091,0.009,0.0089,0.0064,0.0064,0.0064,0,0,0,0,0,0,0.014,0.0141,0.0138,0.0135,0.0134,0.0127,0.0129,0.0128,0.0126,0.0113,0.0111,0.0124,0.0101,0.0098,0.0096,0.0106,0.0089,0.0088,0.0065,0.0064,0.0064,0.0113,0,0,0,0,0,0,0.014,0.0141,0.0148,0.0136,0.0135,0.014,0.0129,0.0127,0.0127,0.0127,0.0113,0.0112,0.0101,0.0097,0.0095,0.0104,0.0088,0.0065,0.0065,0.0064,0.0111,0.0114,0.0117,0,0,0,0,0,0.014,0.015,0.0148,0.0149,0.0144,0.014,0.0138,0.0132,0.0127,0.013,0.0121,0.0112,0.0094,0.0097,0.0094,0.0103,0.0065,0.0065,0.0064,0.011,0.0114,0.0117,0,0,0,0,0,0,0.0148,0.0149,0.0147,0.0157,0.0153,0.014,0.0143,0.0136,0.0129,0.013,0.0114,0.0112,0.0111,0.0097,0.01,0.0093,0.0077,0.0076,0.0112,0.0116,0.0119,0.0136,0.0087,0,0,0,0,0,0.0154,0.0162,0.0158,0.0165,0.0166,0.0155,0.0153,0.0148,0.014,0.0137,0.0128,0.0116,0.0106,0.0105,0.0091,0.0091,0.0064,0.0092,0.0095,0.0098,0.0109,0.007,0.007,0.0064,0.0064,0.0064,0,0,0.0158,0.0161,0.0165,0.0168,0.0164,0.0174,0.0154,0.0156,0.0165,0.0136,0.0145,0.0126,0.0106,0.0105,0.0104,0.0098,0.0083,0.0098,0.01,0.011,0.007,0.007,0.0071,0.0064,0.0064,0.0064,0,0,0.0175,0.0175,0.019,0.0193,0.0194,0.0189,0.0193,0.0184,0.0182,0.0185,0.0164,0.0151,0.0141,0.0127,0.0119,0.0128,0.0097,0.0122,0.0157,0.0119,0.0119,0.0119,0.0079,0.0076,0.0127,0.0127,0.0127,0,0.018,0.0202,0.0192,0.021,0.0221,0.0201,0.0222,0.0214,0.0205,0.0206,0.0197,0.0173,0.0153,0.015,0.0153,0.0136,0.0109,0.0149,0.0124,0.0123,0.0122,0.0081,0.0077,0.0129,0.0129,0.0129,0.0129,0,0.021,0.023,0.024,0.0259,0.0266,0.028,0.0274,0.0276,0.027,0.026,0.0254,0.0222,0.0212,0.0196,0.0181,0.0168,0.0148,0.013,0.0119,0.0126,0.0082,0.0076,0.0133,0.0132,0.0131,0.013,0,0,0.0223,0.0255,0.0262,0.0288,0.0297,0.0309,0.0322,0.0331,0.0346,0.0322,0.0335,0.0303,0.0281,0.0269,0.0238,0.0205,0.0169,0.0173,0.017,0.0141,0.0083,0.009,0.0084,0.0148,0.0147,0.0147,0.0052,0,0.0255,0.0303,0.0309,0.0359,0.0387,0.0381,0.0402,0.0403,0.0394,0.0397,0.0354,0.0353,0.031,0.0309,0.0267,0.0196,0.0157,0.0196,0.0074,0.0071,0.0082,0.0079,0.0145,0.0048,0.0046,0.0045,0.0045,0,0.0289,0.0321,0.0376,0.0426,0.0439,0.0467,0.0501,0.0514,0.0502,0.0494,0.0473,0.0436,0.0392,0.0353,0.0235,0.0263,0.0183,0.0119,0.0113,0.0103,0.0067,0.0038,0.0034,0.0034,0.0035,0.0036,0.0037,0,0.0317,0.0372,0.0422,0.0439,0.0484,0.0517,0.0544,0.055,0.0575,0.056,0.0566,0.0501,0.0479,0.0369,0.0239,0.0238,0.01,0.0077,0.0003,0.0002,0.0003,0.0004,-0.0009,-0.0009,-0.0008,-0.0008,-0.0008,0,0.0353,0.0396,0.0447,0.0479,0.0549,0.0567,0.0634,0.0641,0.0664,0.0693,0.0626,0.0619,0.0482,0.0386,0.0257,0.0116,0.011,0.0012,-0.0018,0.0024,0.0028,-0.0002,0.0,-0.0012,-0.0011,-0.001,-0.001,0,0.0374,0.0405,0.0472,0.0539,0.0567,0.0621,0.0709,0.0752,0.0759,0.0792,0.0793,0.0714,0.0591,0.0438,0.0258,0.0154,0.0008,-0.0044,0.0014,-0.0013,-0.0072,-0.0067,-0.0131,-0.0132,-0.0132,-0.0132,-0.0133,0,0.0387,0.0423,0.0515,0.0567,0.0606,0.0691,0.0751,0.0798,0.084,0.0841,0.0853,0.0762,0.0685,0.0438,0.0268,0.0031,-0.0005,-0.0086,-0.0079,-0.0059,-0.0083,-0.0077,-0.0071,-0.0133,-0.0133,-0.0133,-0.0134,0,0.0412,0.0447,0.0503,0.0603,0.0686,0.0773,0.086,0.0899,0.094,0.0947,0.091,0.0787,0.0649,0.0452,0.0276,0.0098,-0.0035,-0.0091,-0.0091,-0.0085,-0.0063,-0.0085,-0.0079,-0.0135,-0.0135,-0.0135,-0.0135,0,0.043,0.0471,0.0545,0.0635,0.0734,0.0821,0.0873,0.0927,0.0972,0.0973,0.0956,0.0805,0.0727,0.0486,0.0312,0.0154,0.0109,0.0046,0.0038,0.0037,0.0114,0.0169,0.0146,0,0,0,0,0,0.0444,0.0491,0.0571,0.0673,0.0769,0.083,0.0924,0.0966,0.1004,0.0992,0.0983,0.0854,0.0619,0.0509,0.0354,0.0286,0.0067,0.0096,-0.0013,-0.0143,-0.0141,-0.0078,0,0,0,0,0,0,0.0456,0.0527,0.0564,0.0679,0.0754,0.0865,0.0931,0.0965,0.096,0.0969,0.085,0.0805,0.0576,0.0711,0.0348,0.03,0.0206,-0.0008,-0.0012,-0.0144,-0.0142,-0.0141,-0.0076,0,0,0,0,0]}]]